| time (UTC) | temp F | wind direction | speed knots | gust knots | rain 1hr in | rain 24hr in | rain mn in | humidity % | barometer mb |
| 20260906231535 | 65 | 0.0 | 0.0 | 0.00 | 0.00 | 0.00 | 72 | 1015.0 | |
| 20260906230039 | 66 | 0.0 | 0.0 | 0.00 | 0.00 | 0.00 | 72 | 1015.3 | |
| 20260906224537 | 66 | 0.0 | 0.0 | 0.00 | 0.00 | 0.00 | 72 | 1015.3 | |
| 20260906223037 | 65 | 0.0 | 0.0 | 0.00 | 0.00 | 0.00 | 70 | 1015.5 | |
| 20260906221536 | 65 | 0.0 | 0.0 | 0.00 | 0.00 | 0.00 | 70 | 1015.5 | |
| 20260906220039 | 65 | 0.0 | 0.0 | 0.00 | 0.00 | 0.00 | 69 | 1015.5 | |
| 20260906214543 | 65 | 0.0 | 0.0 | 0.00 | 0.00 | 0.00 | 69 | 1015.5 | |
| 20260906213034 | 65 | 0.0 | 0.0 | 0.00 | 0.00 | 0.00 | 69 | 1015.5 | |
| 20260906211533 | 65 | 0.0 | 0.0 | 0.00 | 0.00 | 0.00 | 69 | 1015.7 | |
| 20260906210038 | 65 | 0.0 | 0.0 | 0.00 | 0.00 | 0.00 | 69 | 1015.6 | |
| 20260906204534 | 64 | 0.0 | 0.0 | 0.00 | 0.00 | 0.00 | 69 | 1015.7 | |
| 20260906203037 | 64 | 0.0 | 0.0 | 0.00 | 0.00 | 0.00 | 70 | 1015.8 | |
| 20260906201544 | 64 | 0.0 | 0.0 | 0.00 | 0.00 | 0.00 | 70 | 1015.8 | |
| 20260906200034 | 63 | 0.0 | 0.0 | 0.00 | 0.00 | 0.00 | 72 | 1016.0 | |
| 20260906194534 | 63 | 0.0 | 0.0 | 0.00 | 0.00 | 0.00 | 73 | 1016.1 | |
| 20260906193034 | 63 | 0.0 | 0.0 | 0.00 | 0.00 | 0.00 | 73 | 1016.2 | |
| 20260906191537 | 63 | 0.0 | 0.0 | 0.00 | 0.00 | 0.00 | 73 | 1016.1 | |
| 20260906190035 | 62 | 0.0 | 0.0 | 0.00 | 0.00 | 0.00 | 74 | 1016.3 | |
| 20260906184537 | 62 | 0.0 | 0.0 | 0.00 | 0.00 | 0.00 | 75 | 1016.2 | |
| 20260906183052 | 61 | 0.0 | 0.0 | 0.00 | 0.00 | 0.00 | 77 | 1016.6 | |
| 20260906181541 | 60 | 0.0 | 0.0 | 0.00 | 0.00 | 0.00 | 81 | 1016.8 | |
| 20260906180047 | 59 | 0.0 | 0.0 | 0.00 | 0.00 | 0.00 | 85 | 1016.6 | |
| 20260906174537 | 59 | 0.0 | 0.0 | 0.00 | 0.00 | 0.00 | 87 | 1016.1 | |
| 20260906173040 | 57 | 0.0 | 0.0 | 0.00 | 0.00 | 0.00 | 88 | 1016.8 | |
| 20260906171539 | 56 | 0.0 | 0.0 | 0.00 | 0.00 | 0.00 | 86 | 1018.0 | |
| 20260906170033 | 56 | 0.0 | 0.0 | 0.00 | 0.00 | 0.00 | 86 | 1018.0 | |
| 20260906164534 | 56 | 0.0 | 0.0 | 0.00 | 0.00 | 0.00 | 86 | 1018.1 | |
| 20260906163036 | 55 | 0.0 | 0.0 | 0.00 | 0.00 | 0.00 | 86 | 1018.3 | |
| 20260906161547 | 55 | 0.0 | 0.0 | 0.00 | 0.00 | 0.00 | 86 | 1018.2 | |
| 20260906160036 | 55 | 0.0 | 0.0 | 0.00 | 0.00 | 0.00 | 86 | 1018.1 | |
| 20260906154544 | 54 | 0.0 | 0.0 | 0.00 | 0.00 | 0.00 | 86 | 1018.3 | |
| 20260906153044 | 54 | 0.0 | 0.0 | 0.00 | 0.00 | 0.00 | 87 | 1018.5 | |
| 20260906151535 | 55 | 0.0 | 0.0 | 0.00 | 0.00 | 0.00 | 86 | 1018.6 | |
| 20260906150037 | 55 | 0.0 | 0.0 | 0.00 | 0.00 | 0.00 | 85 | 1018.7 | |
| 20260906144538 | 56 | 0.0 | 0.0 | 0.00 | 0.00 | 0.00 | 85 | 1018.8 | |
| 20260906143034 | 59 | 0.0 | 0.0 | 0.00 | 0.00 | 0.00 | 85 | 1019.1 | |
| 20260906141543 | 58 | 0.0 | 0.0 | 0.00 | 0.00 | 0.00 | 85 | 1018.6 | |
| 20260906140037 | 58 | 0.0 | 0.0 | 0.00 | 0.00 | 0.00 | 86 | 1018.4 | |
| 20260906134536 | 57 | 0.0 | 0.0 | 0.00 | 0.02 | 0.00 | 86 | 1018.5 | |
| 20260906133041 | 57 | 0.0 | 0.0 | 0.00 | 0.02 | 0.00 | 86 | 1018.3 | |
| 20260906131543 | 57 | 0.0 | 0.0 | 0.00 | 0.02 | 0.00 | 85 | 1018.3 | |
| 20260906130051 | 57 | 0.0 | 0.0 | 0.00 | 0.02 | 0.00 | 86 | 1018.4 | |
| 20260906124536 | 57 | 0.0 | 0.0 | 0.00 | 0.02 | 0.00 | 86 | 1018.4 | |
| 20260906123037 | 57 | 0.0 | 0.0 | 0.00 | 0.02 | 0.00 | 86 | 1018.5 | |
| 20260906121539 | 57 | 0.0 | 0.0 | 0.00 | 0.02 | 0.00 | 86 | 1018.3 | |
| 20260906120034 | 57 | 0.0 | 0.0 | 0.00 | 0.02 | 0.00 | 86 | 1018.0 | |
| 20260906114544 | 57 | 0.0 | 0.0 | 0.00 | 0.02 | 0.00 | 85 | 1018.1 | |
| 20260906113036 | 57 | 0.0 | 0.0 | 0.00 | 0.02 | 0.00 | 85 | 1018.3 | |
| 20260906111543 | 57 | 0.0 | 0.0 | 0.00 | 0.02 | 0.00 | 84 | 1018.3 | |
| 20260906110036 | 57 | 0.0 | 0.0 | 0.00 | 0.02 | 0.00 | 84 | 1018.3 | |
| 20260906104537 | 57 | 0.0 | 0.0 | 0.00 | 0.02 | 0.00 | 84 | 1018.5 | |
| 20260906103033 | 57 | 0.0 | 0.0 | 0.00 | 0.02 | 0.00 | 84 | 1018.4 | |
| 20260906101537 | 57 | 0.0 | 0.0 | 0.00 | 0.02 | 0.00 | 83 | 1018.3 | |
| 20260906100034 | 58 | 0.0 | 0.0 | 0.00 | 0.02 | 0.00 | 83 | 1018.4 | |
| 20260906094541 | 58 | 0.0 | 0.0 | 0.00 | 0.02 | 0.00 | 84 | 1018.3 | |
| 20260906093036 | 58 | 0.0 | 0.0 | 0.00 | 0.02 | 0.00 | 83 | 1018.3 | |
| 20260906091536 | 58 | 0.0 | 0.0 | 0.00 | 0.02 | 0.00 | 83 | 1018.4 | |
| 20260906090040 | 58 | 0.0 | 0.0 | 0.00 | 0.02 | 0.00 | 83 | 1018.6 | |
| 20260906084536 | 57 | 0.0 | 0.0 | 0.00 | 0.02 | 0.00 | 85 | 1018.9 | |
| 20260906083042 | 57 | 0.0 | 0.0 | 0.00 | 0.02 | 0.00 | 86 | 1019.2 | |
| 20260906081533 | 57 | 0.0 | 0.0 | 0.00 | 0.02 | 0.00 | 87 | 1019.4 | |
| 20260906080039 | 56 | 0.0 | 0.0 | 0.00 | 0.02 | 0.00 | 87 | 1019.4 | |
| 20260906074535 | 55 | 0.0 | 0.0 | 0.00 | 0.02 | 0.00 | 87 | 1019.5 | |
| 20260906073037 | 55 | 0.0 | 0.0 | 0.00 | 0.02 | 0.00 | 86 | 1019.4 | |
| 20260906071537 | 56 | 0.0 | 0.0 | 0.00 | 0.02 | 0.00 | 85 | 1019.5 | |
| 20260906070035 | 56 | 0.0 | 0.0 | 0.00 | 0.02 | 0.00 | 85 | 1019.7 | |
| 20260906064535 | 56 | 0.0 | 0.0 | 0.00 | 0.02 | 0.00 | 85 | 1019.7 | |
| 20260906063034 | 56 | 0.0 | 0.0 | 0.00 | 0.02 | 0.00 | 84 | 1019.9 | |
| 20260906061534 | 56 | 0.0 | 0.0 | 0.00 | 0.02 | 0.00 | 84 | 1020.3 | |
| 20260906060039 | 55 | 0.0 | 0.0 | 0.00 | 0.02 | 0.00 | 85 | 1020.1 | |
| 20260906054537 | 55 | 0.0 | 0.0 | 0.00 | 0.02 | 0.02 | 85 | 1020.0 | |
| 20260906053035 | 56 | 0.0 | 0.0 | 0.00 | 0.02 | 0.02 | 84 | 1020.0 | |
| 20260906051537 | 56 | 0.0 | 0.0 | 0.00 | 0.02 | 0.02 | 83 | 1019.5 | |
| 20260906050035 | 56 | 0.0 | 0.0 | 0.00 | 0.02 | 0.02 | 83 | 1019.4 | |
| 20260906044534 | 57 | 0.0 | 0.0 | 0.00 | 0.02 | 0.02 | 81 | 1019.2 | |
| 20260906043035 | 58 | 0.0 | 0.0 | 0.00 | 0.02 | 0.02 | 77 | 1019.5 | |
| 20260906041535 | 58 | 0.0 | 0.0 | 0.00 | 0.02 | 0.02 | 77 | 1018.6 | |
| 20260906040035 | 58 | 0.0 | 0.0 | 0.00 | 0.02 | 0.02 | 76 | 1018.4 | |
| 20260906034551 | 58 | 0.0 | 0.0 | 0.00 | 0.02 | 0.02 | 74 | 1018.4 | |
| 20260906033035 | 59 | 0.0 | 0.0 | 0.00 | 0.02 | 0.02 | 71 | 1018.8 | |
| 20260906031534 | 61 | 0.0 | 0.0 | 0.00 | 0.02 | 0.02 | 67 | 1019.1 | |
| 20260906030035 | 61 | 0.0 | 0.0 | 0.00 | 0.02 | 0.02 | 65 | 1019.6 | |
| 20260906024539 | 61 | 0.0 | 0.0 | 0.00 | 0.02 | 0.02 | 65 | 1017.6 | |
| 20260906023032 | 61 | 0.0 | 0.0 | 0.00 | 0.02 | 0.02 | 64 | 1017.1 | |
| 20260906021541 | 62 | 0.0 | 0.0 | 0.00 | 0.02 | 0.02 | 62 | 1017.3 | |
| 20260906020036 | 64 | 0.0 | 0.0 | 0.00 | 0.02 | 0.02 | 60 | 1017.3 | |
| 20260906014538 | 65 | 0.0 | 0.0 | 0.00 | 0.02 | 0.02 | 57 | 1017.1 | |
| 20260906013036 | 66 | 0.0 | 0.0 | 0.00 | 0.02 | 0.02 | 55 | 1017.3 | |
| 20260906011535 | 67 | 0.0 | 0.0 | 0.00 | 0.02 | 0.02 | 53 | 1017.2 | |
| 20260906010041 | 68 | 0.0 | 0.0 | 0.00 | 0.02 | 0.02 | 50 | 1017.2 | |
| 20260906004534 | 70 | 0.0 | 0.0 | 0.00 | 0.02 | 0.02 | 48 | 1017.2 | |
| 20260906003034 | 71 | 0.0 | 0.0 | 0.00 | 0.02 | 0.02 | 42 | 1017.1 | |
| 20260906001548 | 73 | 0.0 | 0.0 | 0.00 | 0.02 | 0.02 | 42 | 1017.3 | |
| 20260906000037 | 73 | 0.0 | 0.0 | 0.00 | 0.02 | 0.02 | 42 | 1017.3 | |
| 20260905234551 | 73 | 0.0 | 0.0 | 0.00 | 0.02 | 0.02 | 42 | 1017.2 | |
| 20260905233035 | 74 | 0.0 | 0.0 | 0.00 | 0.02 | 0.02 | 35 | 1017.3 |